Voltar ao catálogo

METEOR 1-11

AtivoMeteoPO
NORAD 5917·PAYLOAD·🇷🇺 Russia

Lançado Mar 30, 1972 de Plesetsk Cosmodrome

Loading…

Próximas Passagens (próximas 24 horas)

TLE

AtualizadoSource: Space-Track

Época: Sep 14, 2026, 07:16 UTC

1 05917U 72022A   26257.30323968  .00000273  00000-0  14752-3 0  9995
2 05917  81.2320 198.4143 0055154  79.0810 281.6560 14.09295433796993

Acompanhe METEOR 1-11 em tempo real com AllMySat

Download on the App Store